CW9259 Weather Reports


Display with metric or nautical units.
time (UTC)temp
F
wind
direction
speed
MPH
gust
MPH
rain 1hr
in
rain 24hr
in
rain mn
in
humidity
%
barometer
mb
20260506170135 65 93 5.0 8.0 0.00 0.45 0.45 65 1004.0
20260506164559 66 121 2.0 6.0 0.00 0.45 0.45 67 1003.6
20260506163117 66 101 0.0 0.0 0.00 0.45 0.45 66 1003.6
20260506161600 64 45 0.0 4.0 0.00 0.45 0.45 68 1003.4
20260506160131 62 72 1.0 5.0 0.00 0.45 0.45 72 1003.4
20260506154559 62 5 2.0 8.0 0.02 0.45 0.45 71 1003.7
20260506153135 63 346 4.0 9.0 0.09 0.45 0.45 70 1003.8
20260506151558 62 360 6.0 10.0 0.11 0.45 0.45 76 1004.1
20260506150128 60 16 3.0 8.0 0.13 0.45 0.45 80 1004.0
20260506144601 61 5 3.0 6.0 0.11 0.43 0.43 79 1004.3
20260506143136 61 31 1.0 6.0 0.06 0.35 0.35 79 1004.1
20260506141558 62 355 3.0 6.0 0.05 0.34 0.34 77 1004.1
20260506140127 62 77 1.0 3.0 0.04 0.32 0.32 74 1004.4
20260506134618 62 79 0.0 5.0 0.04 0.31 0.31 75 1004.4
20260506133131 62 97 5.0 7.0 0.03 0.30 0.30 74 1004.4
20260506131610 62 90 2.0 7.0 0.03 0.28 0.28 76 1004.4
20260506130137 62 164 3.0 7.0 0.03 0.28 0.28 73 1004.4
20260506124600 63 219 3.0 5.0 0.03 0.28 0.28 72 1004.4
20260506123126 63 119 3.0 6.0 0.03 0.27 0.27 73 1004.3
20260506121607 62 71 1.0 6.0 0.03 0.26 0.26 74 1004.4
20260506120133 61 219 1.0 5.0 0.04 0.25 0.25 80 1004.5
20260506114559 60 157 0.0 5.0 0.05 0.24 0.24 80 1004.4
20260506113135 59 207 1.0 5.0 0.05 0.24 0.24 81 1004.5
20260506111613 59 177 1.0 9.0 0.05 0.23 0.23 80 1004.4
20260506110124 59 142 7.0 10.0 0.03 0.21 0.21 80 1004.5
20260506104605 59 118 5.0 11.0 0.02 0.20 0.20 81 1004.7
20260506103131 59 94 3.0 8.0 0.02 0.20 0.19 83 1004.7
20260506101558 59 90 1.0 7.0 0.01 0.19 0.18 85 1004.7
20260506100137 57 150 2.0 7.0 0.02 0.19 0.18 88 1004.7
20260506094600 55 216 2.0 5.0 0.01 0.20 0.17 92 1004.9
20260506093127 54 154 1.0 5.0 0.02 0.20 0.17 93 1005.1
20260506091600 53 49 0.0 3.0 0.02 0.20 0.17 94 1005.2
20260506090131 52 24 0.0 2.0 0.02 0.19 0.17 94 1005.3
20260506084605 52 24 1.0 5.0 0.02 0.20 0.17 93 1005.4
20260506083126 51 32 1.0 3.0 0.02 0.20 0.16 93 1005.5
20260506081559 51 32 1.0 4.0 0.02 0.19 0.15 92 1005.5
20260506073144 52 275 1.0 5.0 0.02 0.20 0.13 92 1005.4
20260506071559 51 229 0.0 4.0 0.02 0.20 0.13 94 1005.4
20260506070139 51 325 3.0 10.0 0.02 0.20 0.13 90 1005.4
20260506061559 51 15 3.0 6.0 0.02 0.22 0.11 95 1005.8
20260506060130 52 275 0.0 2.0 0.02 0.21 0.10 97 1005.9
20260506044602 52 126 0.0 3.0 0.02 0.28 0.08 96 1006.2
20260506043130 52 144 1.0 3.0 0.02 0.27 0.07 96 1006.3
20260506041614 52 107 3.0 7.0 0.02 0.27 0.07 96 1006.3
20260506040140 52 114 5.0 8.0 0.02 0.26 0.06 96 1006.3
20260506034601 52 119 3.0 6.0 0.02 0.30 0.06 96 1006.3
20260506033126 52 69 3.0 6.0 0.01 0.28 0.06 96 1006.5
20260506031600 52 94 1.0 4.0 0.02 0.28 0.06 96 1006.7
20260506030137 52 103 2.0 6.0 0.01 0.28 0.05 96 1007.0
20260506024606 52 119 0.0 0.0 0.01 0.28 0.05 96 1007.2
20260506023124 52 99 0.0 0.0 0.02 0.28 0.05 96 1007.3
20260506021559 52 97 0.0 0.0 0.01 0.28 0.04 96 1007.3
20260506020001 52 97 0.0 0.0 0.02 0.28 0.04 96 1007.5
20260506014613 52 97 0.0 0.0 0.02 0.28 0.04 96 1007.6
20260506013139 52 97 0.0 0.0 0.02 0.28 0.03 95 1007.7
20260506011628 52 97 0.0 0.0 0.02 0.28 0.03 95 1007.9
20260506010001 52 97 0.0 0.0 0.02 0.27 0.02 95 1008.3
20260506004606 52 97 0.0 0.0 0.01 0.26 0.02 95 1008.5
20260506003133 52 97 0.0 0.0 0.01 0.26 0.02 94 1008.7
20260506001604 53 97 0.0 0.0 0.01 0.26 0.02 94 1008.8
20260506000139 53 97 0.0 0.0 0.01 0.25 0.01 94 1009.0
20260505234608 53 97 0.0 0.0 0.01 0.25 0.01 93 1009.2
20260505233128 53 97 0.0 1.0 0.01 0.25 0.01 93 1009.1
20260505231613 53 97 1.0 3.0 0.01 0.25 0.01 93 1009.3
20260505230008 53 130 0.0 3.0 0.00 0.24 0.00 93 1009.6
20260505224600 53 130 1.0 4.0 0.00 0.24 0.24 92 1009.7
20260505223122 53 71 1.0 3.0 0.00 0.24 0.24 92 1009.5
20260505221603 53 68 0.0 0.0 0.00 0.24 0.24 92 1009.6
20260505220130 53 68 0.0 0.0 0.00 0.24 0.24 92 1009.8
20260505214559 53 68 0.0 0.0 0.00 0.24 0.24 92 1010.0
20260505213142 53 69 0.0 2.0 0.00 0.24 0.24 92 1010.0
20260505211559 53 69 0.0 1.0 0.00 0.24 0.24 92 1010.3
20260505210124 53 69 0.0 1.0 0.00 0.24 0.24 92 1010.2
20260505204602 53 68 0.0 2.0 0.00 0.24 0.24 92 1010.4
20260505203134 53 69 0.0 1.0 0.00 0.24 0.24 92 1010.3
20260505201559 53 69 1.0 3.0 0.00 0.24 0.24 92 1010.2
20260505200124 53 265 0.0 0.0 0.00 0.24 0.24 91 1010.3
20260505194619 53 265 0.0 0.0 0.00 0.26 0.24 91 1010.2
20260505193133 53 265 0.0 0.0 0.00 0.26 0.24 90 1010.1
20260505191609 53 265 0.0 0.0 0.00 0.26 0.24 90 1010.0
20260505190124 54 265 0.0 0.0 0.00 0.26 0.24 89 1009.8
20260505184558 54 265 0.0 2.0 0.00 0.32 0.24 89 1009.9
20260505183129 54 279 2.0 4.0 0.00 0.32 0.24 87 1009.8
20260505181558 54 148 1.0 2.0 0.00 0.32 0.24 88 1009.8
20260505180142 55 148 1.0 2.0 0.00 0.32 0.24 87 1009.8
20260505174600 55 148 1.0 3.0 0.00 0.39 0.24 86 1009.7
20260505173126 56 148 1.0 2.0 0.00 0.39 0.24 86 1009.7
20260505171625 56 148 1.0 3.0 0.00 0.39 0.24 85 1009.8